TimeEDT,TemperatureF,Dew PointF,Humidity,Sea Level PressureIn,VisibilityMPH,Wind Direction,Wind SpeedMPH,Gust SpeedMPH,PrecipitationIn,Events,Conditions,WindDirDegrees,DateUTC
12:53 AM,52.0,46.0,80,29.47,10.0,West,21.9,31.1,N/A,,Mostly Cloudy,270,2012-10-15 04:53:00
1:53 AM,50.0,45.0,83,29.51,10.0,West,13.8,29.9,N/A,,Overcast,270,2012-10-15 05:53:00
2:53 AM,50.0,43.0,77,29.54,10.0,West,16.1,26.5,N/A,,Overcast,270,2012-10-15 06:53:00
3:53 AM,48.9,42.1,77,29.57,10.0,West,18.4,28.8,N/A,,Overcast,270,2012-10-15 07:53:00
4:53 AM,48.0,41.0,77,29.58,10.0,West,20.7,28.8,N/A,,Overcast,260,2012-10-15 08:53:00
5:53 AM,48.0,39.9,74,29.61,10.0,West,21.9,26.5,N/A,,Overcast,260,2012-10-15 09:53:00
6:53 AM,46.9,41.0,80,29.63,10.0,West,21.9,27.6,0.00,Rain,Light Rain,270,2012-10-15 10:53:00
7:29 AM,46.4,41.0,81,29.65,10.0,West,18.4,-,0.00,Rain,Light Rain,260,2012-10-15 11:29:00
7:39 AM,46.4,41.0,81,29.65,10.0,West,18.4,26.5,0.00,Rain,Light Rain,270,2012-10-15 11:39:00
7:50 AM,46.4,41.0,81,29.66,10.0,West,17.3,27.6,0.00,Rain,Light Rain,270,2012-10-15 11:50:00
7:53 AM,46.0,41.0,83,29.66,10.0,West,17.3,-,0.00,Rain,Light Rain,270,2012-10-15 11:53:00
8:41 AM,46.4,42.8,87,29.69,10.0,West,13.8,-,0.00,Rain,Light Rain,260,2012-10-15 12:41:00
8:53 AM,46.0,42.1,86,29.70,10.0,West,16.1,-,0.00,Rain,Light Rain,260,2012-10-15 12:53:00
9:53 AM,48.0,42.1,80,29.72,10.0,West,15.0,-,0.00,,Overcast,270,2012-10-15 13:53:00
10:53 AM,48.9,41.0,74,29.74,10.0,WNW,13.8,-,N/A,,Overcast,290,2012-10-15 14:53:00
11:53 AM,48.9,41.0,74,29.77,10.0,WNW,15.0,26.5,0.00,Rain,Light Rain,300,2012-10-15 15:53:00
12:53 PM,50.0,39.9,68,29.78,10.0,WNW,17.3,25.3,0.00,,Overcast,300,2012-10-15 16:53:00
1:53 PM,51.1,39.9,66,29.80,10.0,WNW,13.8,-,N/A,,Overcast,300,2012-10-15 17:53:00
2:53 PM,48.9,39.9,71,29.82,10.0,WNW,17.3,23.0,N/A,,Overcast,300,2012-10-15 18:53:00
3:53 PM,48.0,41.0,77,29.84,10.0,West,11.5,-,N/A,,Overcast,280,2012-10-15 19:53:00
4:53 PM,48.0,39.0,71,29.87,10.0,NW,13.8,-,N/A,,Overcast,310,2012-10-15 20:53:00
5:29 PM,48.2,39.2,71,29.86,10.0,WNW,4.6,-,N/A,,Overcast,300,2012-10-15 21:29:00
5:53 PM,48.0,39.0,71,29.88,10.0,NNW,10.4,-,N/A,,Overcast,330,2012-10-15 21:53:00
6:02 PM,46.4,39.2,76,29.88,10.0,NW,11.5,-,N/A,,Overcast,320,2012-10-15 22:02:00
6:11 PM,48.2,37.4,66,29.88,10.0,WNW,11.5,18.4,N/A,,Overcast,300,2012-10-15 22:11:00
6:53 PM,46.9,37.9,71,29.89,10.0,WNW,9.2,-,N/A,,Overcast,300,2012-10-15 22:53:00
7:15 PM,46.4,37.4,71,29.89,10.0,WNW,9.2,-,N/A,,Overcast,300,2012-10-15 23:15:00
7:29 PM,46.4,37.4,71,29.89,10.0,WNW,6.9,-,N/A,,Overcast,290,2012-10-15 23:29:00
7:53 PM,46.9,37.9,71,29.91,10.0,WNW,9.2,-,N/A,,Overcast,300,2012-10-15 23:53:00
8:53 PM,46.9,36.0,66,29.92,10.0,NW,10.4,-,N/A,,Overcast,310,2012-10-16 00:53:00
9:53 PM,46.9,36.0,66,29.93,10.0,WNW,6.9,-,N/A,,Overcast,290,2012-10-16 01:53:00
10:53 PM,46.9,36.0,66,29.94,10.0,WNW,6.9,-,N/A,,Overcast,300,2012-10-16 02:53:00
11:53 PM,46.0,35.1,66,29.96,10.0,NW,6.9,-,N/A,,Overcast,320,2012-10-16 03:53:00